RH
63 67 77 79 81 84 84 93 97 96 86 76 78 70 70 71 67 67 72 71 69 67 66 67 72 65 69 71 82 81 90 89 91 91 90 90 85 77
70 70 73 77 81 84 85 87 89 91 93 74 77 79 74 71 69 72 73 71 71 70 68 69 69 70 68 68 72 84 94 91 92 91 90 84 79 70
65 71 75 76 78 81 82 84 84 85 92 77 76 77 80 87 83 77 76 74 76 72 72 70 71 70 75 81 81 93 92 94 94 93 86 80 71 73
71 77 80 80 83 83 84 84 86 86 90 89 79 81 81 84 89 89 89 81 84 82 83 73 79 75 85 85 100 97 93 98 98 96 83 75 72 75
78 81 80 78 73 75 87 89 87 87 89 89 85 81 81 84 88 92 98 95 95 91 95 83 84 86 91 97 100 98 99 97 97 90 81 77 77 76
68 54 55 68 73 85 90 91 89 92 89 86 85 81 79 79 86 96 97 100 99 98 99 96 97 100 100 100 100 100 100 100 99 89 83 80 80 78
52 48 55 68 63 74 77 59 75 90 86 87 88 84 85 84 90 86 95 93 99 100 100 100 100 100 100 100 100 100 100 99 99 94 86 81 81 80
52 49 54 66 69 76 53 61 76 90 91 91 91 90 85 89 88 85 93 94 97 95 100 98 100 100 99 100 98 100 100 99 98 91 82 80 82 81
51 54 54 64 79 67 63 66 74 76 79 84 90 85 85 83 87 90 86 96 92 90 100 97 100 100 100 100 100 100 98 100 94 89 84 82 82 80
60 60 66 76 76 74 70 71 76 79 83 87 89 88 92 95 96 97 98 96 99 100 100 98 100 98 100 100 100 100 99 100 99 92 83 82 81 80
61 64 74 74 73 71 72 74 76 82 84 87 90 94 96 94 99 100 96 98 98 99 100 94 100 100 100 100 100 100 100 99 94 79 78 79 81 80
66 82 72 66 68 69 73 76 84 84 88 94 94 94 97 99 98 100 99 98 98 98 97 94 99 96 97 99 99 99 100 98 86 76 76 77 79 79
70 73 69 68 70 74 78 80 92 93 94 96 98 98 98 100 100 100 100 100 98 100 98 96 98 98 97 96 98 98 98 89 74 72 74 80 78 76
80 71 74 72 74 75 72 83 86 91 96 98 97 97 98 100 99 100 100 100 100 96 100 98 97 97 96 96 95 95 76 64 69 77 79 73 72 69
72 72 67 69 70 76 80 82 88 98 99 97 96 96 99 100 100 99 100 99 98 99 99 99 96 98 97 95 88 80 68 63 60 58 54 50 46 56
79 69 72 70 71 71 79 85 89 100 99 98 98 99 100 98 98 98 98 98 97 98 98 97 98 81 83 71 72 87 63 64 62 58 55 57 56 53
64 74 69 72 77 81 83 84 84 98 99 99 98 99 98 98 97 98 98 97 96 96 96 96 82 60 54 54 87 70 76 76 69 76 75 67 52 47
69 74 79 80 84 84 90 89 88 95 97 98 98 99 98 97 97 97 97 97 95 96 97 100 98 80 58 65 85 88 92 86 73 71 76 84 74 56
77 84 85 83 85 90 91 94 95 98 99 98 98 98 98 97 98 97 98 97 96 98 100 100 96 89 88 74 53 96 77 80 81 87 82 87 78 66
81 78 83 83 90 94 94 94 96 97 98 98 98 98 98 98 97 97 97 96 94 98 100 99 93 79 87 79 92 56 96 92 82 74 63 64 69 80
84 85 86 86 95 92 93 96 97 98 98 98 97 98 97 97 98 97 97 88 89 95 100 100 98 97 92 94 90 76 51 58 70 68 75 80 85 92
86 90 88 92 93 95 96 97 97 97 98 98 97 97 97 97 97 94 87 91 90 88 94 94 88 93 92 94 96 93 79 79 79 83 98 96 89 99
93 94 91 94 94 96 97 97 97 98 98 97 97 97 97 97 88 87 88 85 82 79 75 74 78 80 89 91 93 94 91 92 89 90 89 96 100 100
Wind_Speed
29 28 27 27 27 27 29 28 14 14 14 20 24 34 36 39 44 45 43 46 49 49 50 51 50 52 49 47 44 44 38 35 31 27 25 22 20 19
25 28 27 25 26 25 26 26 27 17 17 25 29 30 35 35 41 42 44 44 49 50 48 51 50 53 51 51 47 44 41 36 30 28 25 23 21 21
29 26 28 27 26 26 26 25 25 24 14 27 29 32 34 35 39 44 45 47 47 50 49 50 51 50 49 46 44 46 42 34 30 27 25 23 21 21
28 26 25 26 27 28 26 27 27 28 23 19 30 29 31 34 37 37 40 48 42 45 45 51 49 48 47 47 43 44 40 33 29 27 25 20 20 22
28 24 24 27 29 28 26 27 29 30 29 25 23 30 30 31 32 36 34 40 39 46 45 48 45 48 49 45 43 45 37 30 27 25 21 19 22 22
22 26 26 25 26 29 29 26 28 28 28 26 22 25 26 28 27 20 21 26 30 35 44 42 40 43 43 43 42 37 33 30 26 26 22 21 23 22
26 26 26 27 31 27 26 33 31 27 27 24 16 21 19 18 12 20 20 26 29 35 33 33 32 35 40 39 37 35 32 29 27 23 24 22 23 22
29 31 30 31 28 29 34 31 31 31 29 22 18 14 23 26 25 24 22 11 8 20 23 29 32 31 31 34 39 33 30 27 23 27 24 23 24 23
31 33 35 31 28 36 36 36 33 32 32 34 29 29 28 31 30 26 24 19 13 17 25 14 27 25 28 33 31 30 26 26 26 27 24 25 24 22
29 33 34 32 33 37 39 38 40 37 34 32 33 39 38 38 35 37 33 30 15 18 26 6 18 16 25 29 29 26 25 25 25 25 26 25 22 20
31 32 31 35 37 38 40 37 40 45 43 40 40 43 45 45 43 38 27 9 6 6 24 9 8 7 16 25 27 23 24 22 25 26 25 23 21 20
29 27 31 37 40 41 40 37 34 38 40 43 41 38 38 38 38 33 29 12 7 3 15 9 8 8 3 7 23 23 22 22 24 24 23 22 21 21
30 30 34 39 42 45 42 36 32 42 43 36 35 33 31 29 30 29 30 28 10 2 16 18 6 6 4 4 8 22 23 25 23 22 21 21 20 21
30 32 35 42 45 40 36 34 39 40 33 30 29 25 24 20 20 13 7 5 7 7 27 18 8 8 5 2 3 12 21 21 22 24 23 21 17 19
33 37 41 40 37 32 34 37 36 29 28 24 21 23 23 21 8 9 13 18 23 22 18 11 21 20 13 5 4 7 10 12 19 21 20 20 22 21
33 36 34 33 31 34 32 31 30 29 28 26 23 26 16 2 2 8 10 14 19 18 19 19 18 15 9 13 10 8 12 5 17 17 17 16 17 18
41 28 28 29 28 30 29 30 32 30 27 25 23 18 7 3 5 9 9 8 6 6 12 15 12 11 10 11 6 11 12 8 11 15 12 12 16 18
31 24 24 26 26 28 29 30 32 30 27 27 21 13 6 5 5 6 9 9 6 9 10 8 8 5 3 2 4 9 8 8 10 11 13 10 14 17
24 23 24 26 28 29 31 30 31 29 28 22 18 12 6 6 6 7 7 7 7 10 10 8 5 3 3 2 3 8 7 8 9 11 13 15 9 12
23 24 26 28 28 29 32 32 32 29 25 20 16 8 2 5 8 6 6 7 7 5 6 8 5 4 3 4 2 3 14 12 10 10 9 13 16 14
26 27 28 29 29 32 34 32 32 28 25 17 10 2 5 8 8 8 9 10 8 4 2 1 5 3 3 2 1 3 6 7 13 16 7 8 4 3
27 28 30 29 30 34 34 32 30 28 21 14 5 3 6 7 8 9 9 8 6 5 5 7 3 1 1 1 2 2 8 11 8 13 19 18 7 3
29 29 30 30 33 34 34 31 30 25 18 10 4 4 5 8 11 11 11 10 10 10 7 4 3 2 3 4 3 4 10 13 5 5 5 15 23 23
Wind_Direction
321 314 307 305 300 294 286 280 289 288 276 270 258 249 248 245 252 256 249 259 263 260 264 261 253 250 247 245 242 241 229 218 217 218 218 221 229 240
325 325 322 316 310 305 300 294 285 282 286 281 275 267 263 257 258 253 251 257 258 259 260 260 257 251 250 246 243 237 215 211 212 214 216 220 228 234
321 318 315 317 313 311 306 299 294 291 287 294 286 280 269 262 264 261 257 255 251 255 255 257 257 254 247 243 238 225 215 208 209 211 216 218 224 225
315 314 318 322 319 316 311 306 302 297 291 292 295 291 279 270 256 254 252 250 245 246 261 257 251 250 244 240 228 219 214 204 205 210 213 214 220 225
312 316 321 320 312 309 308 308 303 297 292 286 288 291 287 280 272 262 251 252 246 251 247 251 253 245 240 230 217 219 202 206 204 212 205 210 219 222
319 317 317 312 310 308 306 307 306 302 301 292 285 288 290 293 279 263 265 251 251 254 253 251 244 234 229 217 205 202 198 198 201 202 202 202 217 221
317 319 314 309 313 307 316 308 305 308 305 299 294 293 282 285 277 276 253 260 245 235 245 247 235 222 208 202 199 198 196 196 198 204 207 202 215 220
322 324 319 313 311 315 314 306 303 303 298 293 294 288 289 288 287 282 265 256 254 240 223 239 219 208 205 197 198 192 191 191 195 212 207 206 214 217
321 321 319 312 314 319 314 309 304 302 295 290 286 283 287 289 289 277 278 257 248 236 206 223 209 207 205 195 186 182 192 194 196 209 206 212 210 215
318 317 311 311 316 317 314 312 308 306 302 293 282 282 282 283 283 286 291 288 251 223 193 197 186 197 194 191 182 186 191 199 200 204 207 207 211 215
315 311 311 314 314 314 313 309 306 302 303 294 283 279 279 278 277 277 274 247 243 224 190 152 168 137 171 179 188 189 196 200 201 205 204 209 209 212
315 316 314 311 312 312 310 305 298 298 305 308 297 285 280 275 274 266 265 253 221 195 207 158 143 148 145 158 184 185 199 201 203 207 207 209 206 213
320 316 314 313 312 311 307 301 299 310 306 303 301 295 286 273 271 275 265 257 234 206 187 166 142 125 76 123 146 197 198 202 202 209 206 201 208 219
316 314 311 314 312 312 314 311 312 314 303 303 299 301 298 282 275 265 252 230 206 199 165 169 140 141 125 97 123 176 196 198 194 191 195 201 211 217
317 313 318 316 319 316 317 316 317 311 304 301 300 301 296 285 219 133 115 114 110 108 112 123 153 138 118 119 144 155 145 187 194 201 205 214 222 220
322 321 322 322 320 315 313 316 315 309 306 304 302 301 293 275 117 134 110 103 91 71 81 89 116 124 116 128 125 135 150 154 189 200 205 218 220 219
326 322 325 323 318 317 319 318 318 317 316 312 307 300 297 129 122 140 112 72 90 105 91 93 101 100 105 143 113 154 173 183 177 167 193 227 232 230
330 321 322 320 317 319 321 318 319 320 319 318 309 297 262 170 148 106 92 99 114 110 109 113 114 90 89 131 206 152 179 198 200 204 213 219 247 241
326 321 320 321 319 319 320 318 316 320 319 315 310 298 242 180 133 106 95 102 93 102 114 126 108 86 70 66 36 216 173 189 185 201 220 226 233 252
325 323 321 320 320 318 320 317 315 322 323 319 316 304 222 125 117 117 103 101 114 108 93 84 98 105 121 177 198 186 217 238 239 251 252 262 266 266
324 322 323 321 318 321 317 316 314 323 324 324 324 342 127 122 104 113 120 131 125 87 92 93 95 110 135 181 14 318 311 265 255 247 228 226 244 235
320 321 324 322 321 319 319 317 316 325 325 328 335 108 120 128 111 114 122 96 100 106 107 104 89 174 174 127 224 233 280 300 289 263 240 229 190 191
319 322 323 321 321 319 319 318 320 323 323 325 5 80 104 103 123 115 109 104 98 80 59 51 26 336 278 248 258 266 279 298 294 300 274 231 230 225